Back to Top

Language: 

My Weather Underground Personal Weather Station Historical Data with Graphs...

Delerius Weather Station Historical Data
Daily Summary for September 24, 2017 Units:  Metric    English   Both
« Previous Day
Next Day »
Daily Weekly Monthly Yearly Custom
  High: Low: Average:
Temperature: 20.1 °C 9.6 °C 15 °C
Dew Point: 13.9 °C 8.4 °C 11.3 °C
Humidity: 96 % 61 % 80 %
Wind Speed: 19.3 km/h 0 km/h 8.2 km/h
Wind Gust: 33.8 km/h - -
Wind:- - SE
Pressure: 1019.5 hPa 1017.8 hPa -
Precipitation: 0.51 mm    
Historical Graphs
 
 
Tabular Data for September 24, 2017
Time Temperature Dew Point Pressure Wind Wind Speed Wind Gust Humidity Rainfall Rate (Hourly) solar Conditions
00:02 13.8 °C 10.6 °C 1019.2 hPa SE 4.8 km/h 14.5 km/h 81 % 0 mm 0 W/m2
00:07 13.7 °C 10.7 °C 1019.2 hPa SSE 3.2 km/h 16.1 km/h 82 % 0 mm 0 W/m2
00:12 13.7 °C 10.5 °C 1019.2 hPa SSE 6.4 km/h 17.7 km/h 81 % 0 mm 0 W/m2
00:17 13.7 °C 10.5 °C 1019.2 hPa SSE 9.7 km/h 17.7 km/h 81 % 0 mm 0 W/m2
00:22 13.6 °C 10.6 °C 1019.2 hPa SSE 8 km/h 14.5 km/h 82 % 0 mm 0 W/m2
00:27 13.6 °C 10.6 °C 1019.2 hPa South 6.4 km/h 12.9 km/h 82 % 0 mm 0 W/m2
00:32 13.5 °C 10.5 °C 1019.2 hPa South 4.8 km/h 12.9 km/h 82 % 0 mm 0 W/m2
00:37 13.4 °C 10.4 °C 1019.2 hPa South 4.8 km/h 11.3 km/h 82 % 0 mm 0 W/m2
00:42 13.3 °C 10.3 °C 1019.2 hPa South 6.4 km/h 16.1 km/h 82 % 0 mm 0 W/m2
00:47 13.2 °C 10.4 °C 1019.2 hPa SSE 6.4 km/h 16.1 km/h 83 % 0 mm 0 W/m2
00:52 13.2 °C 10.4 °C 1019.2 hPa SSE 6.4 km/h 12.9 km/h 83 % 0 mm 0 W/m2
00:57 13.1 °C 10.3 °C 1019.2 hPa SSE 8 km/h 16.1 km/h 83 % 0 mm 0 W/m2
01:02 13.1 °C 10.4 °C 1019.2 hPa SSE 9.7 km/h 16.1 km/h 84 % 0 mm 0 W/m2
01:07 13.1 °C 10.4 °C 1019.2 hPa SSE 8 km/h 14.5 km/h 84 % 0 mm 0 W/m2
01:12 13 °C 10.3 °C 1019.2 hPa SSE 6.4 km/h 11.3 km/h 84 % 0 mm 0 W/m2
01:17 12.9 °C 10.3 °C 1019.2 hPa SSE 3.2 km/h 11.3 km/h 84 % 0 mm 0 W/m2
01:22 12.8 °C 10.3 °C 1018.8 hPa SSE 4.8 km/h 12.9 km/h 85 % 0 mm 0 W/m2
01:27 12.8 °C 10.3 °C 1019.2 hPa SSE 8 km/h 12.9 km/h 85 % 0 mm 0 W/m2
01:32 12.8 °C 10.3 °C 1019.2 hPa SSE 6.4 km/h 12.9 km/h 85 % 0 mm 0 W/m2
01:38 12.7 °C 10.2 °C 1019.2 hPa SSE 4.8 km/h 9.7 km/h 85 % 0 mm 0 W/m2
01:43 12.7 °C 10.2 °C 1019.2 hPa SSE 3.2 km/h 9.7 km/h 85 % 0 mm 0 W/m2
01:48 12.7 °C 10.2 °C 1019.2 hPa SSE 1.6 km/h 8 km/h 85 % 0 mm 0 W/m2
01:53 12.6 °C 10.2 °C 1018.8 hPa South 1.6 km/h 8 km/h 85 % 0 mm 0 W/m2
01:58 12.6 °C 10.3 °C 1018.8 hPa South 1.6 km/h 9.7 km/h 86 % 0 mm 0 W/m2
02:03 12.6 °C 10.3 °C 1018.8 hPa South 3.2 km/h 9.7 km/h 86 % 0 mm 0 W/m2
02:08 12.5 °C 10.2 °C 1018.8 hPa South 4.8 km/h 11.3 km/h 86 % 0 mm 0 W/m2
02:13 12.5 °C 10.2 °C 1018.8 hPa South 6.4 km/h 12.9 km/h 86 % 0 mm 0 W/m2
02:18 12.4 °C 10.1 °C 1018.8 hPa SSE 8 km/h 12.9 km/h 86 % 0 mm 0 W/m2
02:23 12.4 °C 10.1 °C 1018.8 hPa SSE 8 km/h 14.5 km/h 86 % 0 mm 0 W/m2
02:28 12.3 °C 10 °C 1018.8 hPa SSE 9.7 km/h 14.5 km/h 86 % 0 mm 0 W/m2
02:33 12.4 °C 10.1 °C 1018.8 hPa SSE 8 km/h 12.9 km/h 86 % 0 mm 0 W/m2
02:38 12.4 °C 10.1 °C 1018.8 hPa SE 6.4 km/h 12.9 km/h 86 % 0 mm 0 W/m2
02:43 12.3 °C 10 °C 1018.8 hPa ESE 6.4 km/h 14.5 km/h 86 % 0 mm 0 W/m2
02:48 12.3 °C 10 °C 1018.8 hPa ESE 8 km/h 14.5 km/h 86 % 0 mm 0 W/m2
02:53 12.2 °C 9.9 °C 1018.8 hPa ESE 8 km/h 14.5 km/h 86 % 0 mm 0 W/m2
02:58 12.2 °C 10.1 °C 1018.8 hPa ESE 8 km/h 14.5 km/h 87 % 0 mm 0 W/m2
03:03 12.1 °C 10 °C 1018.8 hPa ESE 9.7 km/h 14.5 km/h 87 % 0 mm 0 W/m2
03:08 12 °C 9.9 °C 1018.8 hPa ESE 9.7 km/h 14.5 km/h 87 % 0 mm 0 W/m2
03:13 11.9 °C 9.8 °C 1018.5 hPa ESE 9.7 km/h 14.5 km/h 87 % 0 mm 0 W/m2
03:14 11.9 °C 9.8 °C 1018.5 hPa ESE 9.7 km/h 14.5 km/h 87 % 0 mm 0 W/m2
03:19 11.9 °C 10 °C 1018.8 hPa SE 8 km/h 14.5 km/h 88 % 0 mm 0 W/m2
03:24 11.8 °C 9.9 °C 1018.5 hPa SE 8 km/h 14.5 km/h 88 % 0 mm 0 W/m2
03:29 11.8 °C 9.9 °C 1018.5 hPa SSE 6.4 km/h 12.9 km/h 88 % 0 mm 0 W/m2
03:34 11.8 °C 9.9 °C 1018.5 hPa SSE 6.4 km/h 11.3 km/h 88 % 0 mm 0 W/m2
03:39 11.8 °C 9.9 °C 1018.5 hPa SE 6.4 km/h 17.7 km/h 88 % 0 mm 0 W/m2
03:44 11.8 °C 9.9 °C 1018.5 hPa SE 9.7 km/h 17.7 km/h 88 % 0 mm 0 W/m2
03:49 11.8 °C 9.9 °C 1018.5 hPa SE 9.7 km/h 19.3 km/h 88 % 0 mm 0 W/m2
03:55 11.7 °C 9.8 °C 1018.5 hPa SSE 8 km/h 19.3 km/h 88 % 0 mm 0 W/m2
04:00 11.7 °C 9.8 °C 1018.5 hPa SSE 6.4 km/h 12.9 km/h 88 % 0 mm 0 W/m2
04:05 11.7 °C 9.8 °C 1018.5 hPa SSE 6.4 km/h 14.5 km/h 88 % 0 mm 0 W/m2
04:10 11.6 °C 9.7 °C 1018.5 hPa SSE 6.4 km/h 14.5 km/h 88 % 0 mm 0 W/m2
04:20 11.6 °C 9.8 °C 1018.5 hPa SE 8 km/h 14.5 km/h 89 % 0 mm 0 W/m2
04:23 11.5 °C 9.7 °C 1018.2 hPa SE 8 km/h 14.5 km/h 89 % 0 mm 0 W/m2
04:24 11.5 °C 9.7 °C 1018.2 hPa SE 8 km/h 14.5 km/h 89 % 0 mm 0 W/m2
04:25 11.5 °C 9.7 °C 1018.2 hPa SE 8 km/h 14.5 km/h 89 % 0 mm 0 W/m2
04:27 11.5 °C 9.7 °C 1018.2 hPa SE 8 km/h 14.5 km/h 89 % 0 mm 0 W/m2
04:32 11.4 °C 9.7 °C 1018.2 hPa SE 4.8 km/h 12.9 km/h 89 % 0 mm 0 W/m2
04:37 11.4 °C 9.5 °C 1018.2 hPa SE 3.2 km/h 12.9 km/h 88 % 0 mm 0 W/m2
04:42 11.4 °C 9.5 °C 1018.2 hPa SSE 3.2 km/h 12.9 km/h 88 % 0 mm 0 W/m2
04:47 11.3 °C 9.4 °C 1018.2 hPa SE 4.8 km/h 12.9 km/h 88 % 0 mm 0 W/m2
04:52 11.3 °C 9.4 °C 1018.5 hPa SE 4.8 km/h 11.3 km/h 88 % 0 mm 0 W/m2
04:57 11.2 °C 9.4 °C 1018.5 hPa SE 4.8 km/h 11.3 km/h 89 % 0 mm 0 W/m2
05:02 11.2 °C 9.4 °C 1018.5 hPa SE 4.8 km/h 11.3 km/h 89 % 0 mm 0 W/m2
05:07 11.1 °C 9.3 °C 1018.2 hPa SE 4.8 km/h 11.3 km/h 89 % 0 mm 0 W/m2
05:12 11.1 °C 9.3 °C 1018.2 hPa SSE 3.2 km/h 11.3 km/h 89 % 0 mm 0 W/m2
05:17 11 °C 9.3 °C 1018.5 hPa SSE 1.6 km/h 11.3 km/h 89 % 0 mm 0 W/m2
05:22 10.9 °C 9.2 °C 1018.5 hPa Calm   6.4 km/h 89 % 0 mm 0 W/m2
05:27 10.8 °C 9.1 °C 1018.5 hPa Calm   3.2 km/h 89 % 0 mm 0 W/m2
05:32 10.7 °C 8.9 °C 1018.5 hPa Calm   1.6 km/h 89 % 0 mm 0 W/m2
05:37 10.5 °C 8.8 °C 1018.5 hPa Calm   3.2 km/h 89 % 0 mm 0 W/m2
05:42 10.5 °C 8.9 °C 1018.5 hPa Calm   3.2 km/h 90 % 0 mm 0 W/m2
05:47 10.4 °C 8.8 °C 1018.5 hPa Calm   3.2 km/h 90 % 0 mm 0 W/m2
05:52 10.3 °C 8.7 °C 1018.5 hPa East 1.6 km/h 11.3 km/h 90 % 0 mm 0 W/m2
05:57 10.3 °C 8.7 °C 1018.5 hPa East 1.6 km/h 11.3 km/h 90 % 0 mm 0 W/m2
06:02 10.2 °C 8.8 °C 1018.5 hPa ESE 3.2 km/h 12.9 km/h 91 % 0 mm 0 W/m2
06:07 10.2 °C 8.8 °C 1018.5 hPa ESE 4.8 km/h 12.9 km/h 91 % 0 mm 0 W/m2
06:12 10.2 °C 8.8 °C 1018.2 hPa ESE 3.2 km/h 9.7 km/h 91 % 0 mm 0 W/m2
06:17 10.1 °C 8.7 °C 1018.2 hPa ESE 3.2 km/h 9.7 km/h 91 % 0 mm 0 W/m2
06:22 10.1 °C 8.7 °C 1018.5 hPa ESE 3.2 km/h 8 km/h 91 % 0 mm 0 W/m2
06:27 10 °C 8.6 °C 1018.5 hPa ESE 3.2 km/h 8 km/h 91 % 0 mm 0 W/m2
06:32 9.9 °C 8.5 °C 1018.5 hPa SE 3.2 km/h 8 km/h 91 % 0 mm 0 W/m2
06:37 9.9 °C 8.7 °C 1018.5 hPa SE 3.2 km/h 9.7 km/h 92 % 0 mm 0 W/m2
06:42 9.9 °C 8.7 °C 1018.5 hPa ESE 4.8 km/h 9.7 km/h 92 % 0 mm 0 W/m2
06:47 9.8 °C 8.6 °C 1018.5 hPa ESE 3.2 km/h 9.7 km/h 92 % 0 mm 0 W/m2
06:52 9.8 °C 8.6 °C 1018.5 hPa ESE 1.6 km/h 8 km/h 92 % 0 mm 0 W/m2
06:57 9.7 °C 8.4 °C 1018.5 hPa Calm   6.4 km/h 92 % 0 mm 0 W/m2
07:02 9.7 °C 8.4 °C 1018.5 hPa Calm   6.4 km/h 92 % 0 mm 5 W/m2
07:07 9.7 °C 8.6 °C 1018.5 hPa ESE 1.6 km/h 6.4 km/h 93 % 0 mm 7 W/m2
07:12 9.8 °C 8.7 °C 1018.5 hPa ESE 1.6 km/h 6.4 km/h 93 % 0 mm 9 W/m2
07:17 9.8 °C 8.7 °C 1018.8 hPa ESE 1.6 km/h 4.8 km/h 93 % 0 mm 16 W/m2
07:22 9.7 °C 8.6 °C 1018.8 hPa Calm   3.2 km/h 93 % 0 mm 21 W/m2
07:27 9.7 °C 8.6 °C 1018.8 hPa Calm   3.2 km/h 93 % 0 mm 26 W/m2
07:32 9.7 °C 8.6 °C 1018.8 hPa Calm   3.2 km/h 93 % 0 mm 26 W/m2
07:37 9.7 °C 8.6 °C 1018.8 hPa Calm   3.2 km/h 93 % 0 mm 28 W/m2
07:42 9.7 °C 8.6 °C 1018.8 hPa Calm   4.8 km/h 93 % 0 mm 30 W/m2
07:48 9.6 °C 8.5 °C 1018.8 hPa Calm   4.8 km/h 93 % 0 mm 32 W/m2
07:53 9.6 °C 8.5 °C 1018.8 hPa Calm   4.8 km/h 93 % 0 mm 35 W/m2
07:58 9.7 °C 8.8 °C 1018.8 hPa Calm   3.2 km/h 94 % 0 mm 30 W/m2
08:03 9.7 °C 8.8 °C 1018.8 hPa Calm   6.4 km/h 94 % 0 mm 25 W/m2
08:08 10 °C 9.2 °C 1018.8 hPa ESE 1.6 km/h 8 km/h 95 % 0 mm 25 W/m2
08:13 10.2 °C 9.4 °C 1018.8 hPa ESE 3.2 km/h 9.7 km/h 95 % 0 mm 30 W/m2
08:18 10.3 °C 9.6 °C 1018.8 hPa ESE 6.4 km/h 11.3 km/h 95 % 0 mm 30 W/m2
08:23 10.4 °C 9.6 °C 1018.8 hPa ESE 6.4 km/h 12.9 km/h 95 % 0 mm 32 W/m2
08:28 10.5 °C 9.7 °C 1018.8 hPa SE 6.4 km/h 12.9 km/h 95 % 0 mm 76 W/m2
08:33 10.6 °C 9.8 °C 1018.8 hPa SE 4.8 km/h 12.9 km/h 95 % 0 mm 93 W/m2
08:38 10.7 °C 9.9 °C 1018.8 hPa SE 4.8 km/h 9.7 km/h 95 % 0 mm 74 W/m2
08:48 10.8 °C 10.1 °C 1019.2 hPa SE 4.8 km/h 12.9 km/h 95 % 0 mm 62 W/m2
08:53 10.8 °C 10.1 °C 1019.2 hPa SE 4.8 km/h 9.7 km/h 95 % 0 mm 111 W/m2
08:58 10.9 °C 10.1 °C 1019.2 hPa SE 4.8 km/h 12.9 km/h 95 % 0 mm 123 W/m2
09:03 11.1 °C 10.5 °C 1019.2 hPa SE 6.4 km/h 14.5 km/h 96 % 0 mm 132 W/m2
09:08 11.2 °C 10.6 °C 1019.2 hPa SE 6.4 km/h 16.1 km/h 96 % 0 mm 148 W/m2
09:13 11.3 °C 10.7 °C 1019.2 hPa SE 4.8 km/h 16.1 km/h 96 % 0 mm 118 W/m2
09:18 11.5 °C 10.9 °C 1019.2 hPa SE 3.2 km/h 9.7 km/h 96 % 0 mm 84 W/m2
09:23 11.6 °C 11 °C 1019.2 hPa SSE 4.8 km/h 16.1 km/h 96 % 0 mm 192 W/m2
09:28 11.7 °C 11.1 °C 1019.2 hPa SSE 6.4 km/h 16.1 km/h 96 % 0 mm 227 W/m2
09:33 11.8 °C 11 °C 1019.5 hPa SE 6.4 km/h 12.9 km/h 95 % 0 mm 304 W/m2
09:38 12 °C 11.4 °C 1019.2 hPa SE 4.8 km/h 12.9 km/h 96 % 0 mm 267 W/m2
09:43 12.2 °C 11.4 °C 1019.2 hPa SSE 6.4 km/h 16.1 km/h 95 % 0 mm 366 W/m2
09:48 12.5 °C 11.7 °C 1019.2 hPa SSE 8 km/h 16.1 km/h 95 % 0 mm 404 W/m2
09:50 12.6 °C 11.8 °C 1019.2 hPa SSE 8 km/h 16.1 km/h 95 % 0 mm 390 W/m2
09:55 12.9 °C 12.1 °C 1019.2 hPa SSE 9.7 km/h 16.1 km/h 95 % 0 mm 385 W/m2
10:00 13.1 °C 12 °C 1019.2 hPa SSE 9.7 km/h 17.7 km/h 93 % 0 mm 383 W/m2
10:05 13.3 °C 12 °C 1019.2 hPa SSE 9.7 km/h 17.7 km/h 92 % 0 mm 404 W/m2
10:10 13.6 °C 12.2 °C 1019.5 hPa SSE 8 km/h 17.7 km/h 91 % 0 mm 424 W/m2
10:15 13.9 °C 12.3 °C 1019.2 hPa SSE 6.4 km/h 17.7 km/h 90 % 0 mm 432 W/m2
10:20 14.3 °C 12.3 °C 1019.2 hPa SE 8 km/h 14.5 km/h 88 % 0 mm 462 W/m2
10:25 14.6 °C 12.4 °C 1019.2 hPa SSE 8 km/h 14.5 km/h 87 % 0 mm 450 W/m2
10:30 14.8 °C 12.7 °C 1019.2 hPa SSE 8 km/h 14.5 km/h 87 % 0 mm 454 W/m2
10:35 15.1 °C 12.6 °C 1019.2 hPa SSE 9.7 km/h 16.1 km/h 85 % 0 mm 469 W/m2
10:40 15.3 °C 12.8 °C 1019.2 hPa SSE 8 km/h 16.1 km/h 85 % 0 mm 489 W/m2
10:45 15.4 °C 12.7 °C 1019.2 hPa SSE 9.7 km/h 19.3 km/h 84 % 0 mm 512 W/m2
10:50 15.5 °C 12.6 °C 1019.5 hPa SSE 9.7 km/h 19.3 km/h 83 % 0 mm 501 W/m2
10:55 15.7 °C 13 °C 1019.2 hPa SSE 9.7 km/h 19.3 km/h 84 % 0 mm 552 W/m2
11:00 15.9 °C 13 °C 1019.2 hPa SSE 11.3 km/h 19.3 km/h 83 % 0 mm 547 W/m2
11:05 16.2 °C 13.1 °C 1019.2 hPa SE 11.3 km/h 17.7 km/h 82 % 0 mm 540 W/m2
11:10 16.4 °C 13.3 °C 1019.2 hPa SE 9.7 km/h 17.7 km/h 82 % 0 mm 547 W/m2
11:15 16.6 °C 13.3 °C 1019.2 hPa SE 9.7 km/h 17.7 km/h 81 % 0 mm 513 W/m2
11:20 16.8 °C 13.3 °C 1019.2 hPa SE 11.3 km/h 20.9 km/h 80 % 0 mm 540 W/m2
11:25 17 °C 13.5 °C 1019.2 hPa SE 12.9 km/h 20.9 km/h 80 % 0 mm 555 W/m2
11:30 17.2 °C 13.5 °C 1018.8 hPa SSE 11.3 km/h 20.9 km/h 79 % 0 mm 594 W/m2
11:35 17.4 °C 13.5 °C 1019.2 hPa SSE 9.7 km/h 17.7 km/h 78 % 0 mm 594 W/m2
11:40 17.6 °C 13.9 °C 1018.8 hPa SE 9.7 km/h 17.7 km/h 79 % 0 mm 461 W/m2
11:45 17.8 °C 13.7 °C 1018.8 hPa SE 8 km/h 14.5 km/h 77 % 0 mm 283 W/m2
11:50 17.8 °C 13.3 °C 1018.8 hPa SE 9.7 km/h 19.3 km/h 75 % 0 mm 304 W/m2
11:55 17.7 °C 13.6 °C 1018.8 hPa SE 9.7 km/h 19.3 km/h 77 % 0 mm 360 W/m2
12:00 17.8 °C 13.7 °C 1018.5 hPa SSE 9.7 km/h 16.1 km/h 77 % 0 mm 570 W/m2
12:05 18 °C 13.5 °C 1018.5 hPa SSE 11.3 km/h 19.3 km/h 75 % 0 mm 573 W/m2
12:10 18.2 °C 13.7 °C 1018.5 hPa SE 11.3 km/h 22.5 km/h 75 % 0 mm 582 W/m2
12:15 18.4 °C 13.7 °C 1018.5 hPa SE 11.3 km/h 22.5 km/h 74 % 0 mm 633 W/m2
12:20 18.7 °C 13.9 °C 1018.5 hPa SE 9.7 km/h 20.9 km/h 74 % 0 mm 385 W/m2
12:25 18.8 °C 13.8 °C 1018.5 hPa SE 9.7 km/h 17.7 km/h 73 % 0 mm 548 W/m2
12:30 19 °C 13.4 °C 1018.5 hPa SSE 11.3 km/h 20.9 km/h 70 % 0 mm 573 W/m2
12:35 19.1 °C 13.7 °C 1018.5 hPa SSE 11.3 km/h 20.9 km/h 71 % 0 mm 473 W/m2
12:40 19.2 °C 13.8 °C 1018.5 hPa SE 11.3 km/h 19.3 km/h 71 % 0 mm 545 W/m2
12:45 19.4 °C 13.8 °C 1018.5 hPa SE 11.3 km/h 22.5 km/h 70 % 0 mm 564 W/m2
12:50 19.5 °C 13.7 °C 1018.5 hPa SE 12.9 km/h 22.5 km/h 69 % 0 mm 469 W/m2
12:55 19.5 °C 13.9 °C 1018.5 hPa SE 12.9 km/h 22.5 km/h 70 % 0 mm 352 W/m2
13:00 19.4 °C 13.6 °C 1018.5 hPa SE 11.3 km/h 24.1 km/h 69 % 0 mm 334 W/m2
13:05 19.4 °C 13.6 °C 1018.5 hPa SE 12.9 km/h 24.1 km/h 69 % 0 mm 522 W/m2
13:10 19.4 °C 12.9 °C 1018.5 hPa SE 14.5 km/h 33.8 km/h 66 % 0 mm 353 W/m2
13:15 19.4 °C 12.9 °C 1018.2 hPa SSE 16.1 km/h 33.8 km/h 66 % 0 mm 292 W/m2
13:20 19.3 °C 12.8 °C 1018.2 hPa SSE 16.1 km/h 24.1 km/h 66 % 0 mm 336 W/m2
13:21 19.3 °C 12.8 °C 1018.2 hPa SSE 16.1 km/h 24.1 km/h 66 % 0 mm 350 W/m2
13:26 19.2 °C 12.9 °C 1018.2 hPa South 14.5 km/h 25.7 km/h 67 % 0 mm 380 W/m2
13:31 19.2 °C 12.9 °C 1018.2 hPa SSE 14.5 km/h 25.7 km/h 67 % 0 mm 308 W/m2
13:36 19.2 °C 12.7 °C 1018.2 hPa SSE 16.1 km/h 25.7 km/h 66 % 0 mm 248 W/m2
13:41 19.2 °C 12.9 °C 1018.2 hPa SSE 16.1 km/h 25.7 km/h 67 % 0 mm 276 W/m2
13:46 19.2 °C 12.9 °C 1018.2 hPa SE 14.5 km/h 24.1 km/h 67 % 0 mm 318 W/m2
13:51 19.2 °C 12.9 °C 1018.2 hPa SE 16.1 km/h 24.1 km/h 67 % 0 mm 267 W/m2
13:56 19.2 °C 12.9 °C 1018.2 hPa SSE 16.1 km/h 24.1 km/h 67 % 0 mm 255 W/m2
14:01 19.2 °C 13.2 °C 1018.2 hPa SE 14.5 km/h 24.1 km/h 68 % 0 mm 260 W/m2
14:06 19.2 °C 12.9 °C 1018.2 hPa SE 12.9 km/h 24.1 km/h 67 % 0 mm 257 W/m2
14:11 19.2 °C 12.9 °C 1018.2 hPa SE 14.5 km/h 25.7 km/h 67 % 0 mm 241 W/m2
14:16 19.1 °C 12.6 °C 1018.2 hPa SE 16.1 km/h 25.7 km/h 66 % 0 mm 230 W/m2
14:21 19.1 °C 12.6 °C 1018.2 hPa SE 14.5 km/h 25.7 km/h 66 % 0 mm 218 W/m2
14:26 19 °C 12.5 °C 1018.2 hPa SE 14.5 km/h 29 km/h 66 % 0 mm 206 W/m2
14:31 19 °C 12.7 °C 1018.2 hPa SE 16.1 km/h 29 km/h 67 % 0 mm 227 W/m2
14:36 19 °C 12.7 °C 1018.2 hPa SE 14.5 km/h 24.1 km/h 67 % 0 mm 244 W/m2
14:42 19 °C 12.7 °C 1018.2 hPa SE 14.5 km/h 25.7 km/h 67 % 0 mm 269 W/m2
14:47 19.1 °C 12.6 °C 1018.2 hPa SE 16.1 km/h 25.7 km/h 66 % 0 mm 276 W/m2
14:52 19.1 °C 12.4 °C 1018.2 hPa SE 16.1 km/h 29 km/h 65 % 0 mm 274 W/m2
14:57 19.1 °C 12.4 °C 1018.2 hPa SE 16.1 km/h 29 km/h 65 % 0 mm 281 W/m2
15:02 19.1 °C 12.4 °C 1017.8 hPa SE 14.5 km/h 29 km/h 65 % 0 mm 269 W/m2
15:07 19.1 °C 12.1 °C 1018.2 hPa SE 17.7 km/h 32.2 km/h 64 % 0 mm 269 W/m2
15:12 19.1 °C 12.1 °C 1018.2 hPa SE 19.3 km/h 32.2 km/h 64 % 0 mm 292 W/m2
15:17 19.1 °C 12.4 °C 1017.8 hPa SE 16.1 km/h 29 km/h 65 % 0 mm 522 W/m2
15:22 19.2 °C 12 °C 1017.8 hPa SE 17.7 km/h 30.6 km/h 63 % 0 mm 257 W/m2
15:27 19.3 °C 12.1 °C 1017.8 hPa SE 19.3 km/h 30.6 km/h 63 % 0 mm 214 W/m2
15:32 19.3 °C 12.1 °C 1017.8 hPa SE 17.7 km/h 30.6 km/h 63 % 0 mm 190 W/m2
15:37 19.2 °C 12 °C 1017.8 hPa SE 16.1 km/h 29 km/h 63 % 0 mm 220 W/m2
15:42 19.3 °C 12.3 °C 1017.8 hPa SSE 14.5 km/h 25.7 km/h 64 % 0 mm 267 W/m2
15:47 19.3 °C 12.1 °C 1017.8 hPa SSE 14.5 km/h 25.7 km/h 63 % 0 mm 309 W/m2
15:52 19.4 °C 12.2 °C 1017.8 hPa SSE 14.5 km/h 25.7 km/h 63 % 0 mm 260 W/m2
15:57 19.6 °C 12.4 °C 1017.8 hPa SE 14.5 km/h 25.7 km/h 63 % 0 mm 524 W/m2
16:02 19.8 °C 12.6 °C 1017.8 hPa SE 14.5 km/h 24.1 km/h 63 % 0 mm 318 W/m2
16:07 20.1 °C 12.6 °C 1017.8 hPa SE 14.5 km/h 24.1 km/h 62 % 0 mm 281 W/m2
16:12 20.1 °C 12.6 °C 1017.8 hPa SE 14.5 km/h 22.5 km/h 62 % 0 mm 248 W/m2
16:17 20 °C 12.5 °C 1017.8 hPa SE 14.5 km/h 22.5 km/h 62 % 0 mm 171 W/m2
16:22 19.8 °C 12.1 °C 1017.8 hPa SE 14.5 km/h 24.1 km/h 61 % 0 mm 148 W/m2
16:27 19.7 °C 12.2 °C 1017.8 hPa SE 16.1 km/h 24.1 km/h 62 % 0 mm 134 W/m2
16:32 19.5 °C 12 °C 1017.8 hPa SE 14.5 km/h 24.1 km/h 62 % 0 mm 155 W/m2
16:37 19.4 °C 11.9 °C 1017.8 hPa SE 14.5 km/h 25.7 km/h 62 % 0 mm 125 W/m2
16:42 19.3 °C 12.1 °C 1017.8 hPa SE 14.5 km/h 25.7 km/h 63 % 0 mm 88 W/m2
16:47 19.3 °C 12.3 °C 1017.8 hPa SSE 11.3 km/h 22.5 km/h 64 % 0 mm 88 W/m2
16:52 19.2 °C 12.4 °C 1017.8 hPa SE 9.7 km/h 20.9 km/h 65 % 0 mm 97 W/m2
16:57 19.1 °C 12.4 °C 1017.8 hPa SE 11.3 km/h 20.9 km/h 65 % 0 mm 88 W/m2
17:02 19.1 °C 12.4 °C 1017.8 hPa SE 9.7 km/h 17.7 km/h 65 % 0 mm 79 W/m2
17:08 18.9 °C 12.4 °C 1017.8 hPa SE 9.7 km/h 17.7 km/h 66 % 0 mm 69 W/m2
17:13 18.9 °C 12.4 °C 1017.8 hPa SE 9.7 km/h 17.7 km/h 66 % 0 mm 49 W/m2
17:18 18.8 °C 12.3 °C 1017.8 hPa SE 9.7 km/h 16.1 km/h 66 % 0 mm 35 W/m2
17:23 18.8 °C 12.3 °C 1017.8 hPa SE 9.7 km/h 19.3 km/h 66 % 0 mm 35 W/m2
17:24 18.8 °C 12.3 °C 1017.8 hPa SE 9.7 km/h 19.3 km/h 66 % 0 mm 37 W/m2
17:29 18.7 °C 12.2 °C 1017.8 hPa SE 9.7 km/h 19.3 km/h 66 % 0 mm 40 W/m2
17:34 18.7 °C 12.2 °C 1017.8 hPa SE 9.7 km/h 14.5 km/h 66 % 0 mm 40 W/m2
17:39 18.6 °C 12.1 °C 1017.8 hPa SE 8 km/h 14.5 km/h 66 % 0 mm 33 W/m2
17:44 18.6 °C 12.1 °C 1017.8 hPa ESE 8 km/h 14.5 km/h 66 % 0 mm 42 W/m2
17:49 18.6 °C 12.1 °C 1017.8 hPa ESE 9.7 km/h 19.3 km/h 66 % 0 mm 42 W/m2
17:54 18.5 °C 12.3 °C 1017.8 hPa ESE 8 km/h 19.3 km/h 67 % 0 mm 37 W/m2
17:59 18.4 °C 12.2 °C 1017.8 hPa ESE 8 km/h 12.9 km/h 67 % 0 mm 39 W/m2
18:04 18.4 °C 12.2 °C 1017.8 hPa ESE 8 km/h 12.9 km/h 67 % 0 mm 37 W/m2
18:09 18.4 °C 12.4 °C 1017.8 hPa ESE 8 km/h 12.9 km/h 68 % 0 mm 30 W/m2
18:14 18.3 °C 12.5 °C 1017.8 hPa ESE 8 km/h 14.5 km/h 69 % 0 mm 21 W/m2
18:19 18.2 °C 12.4 °C 1017.8 hPa ESE 8 km/h 14.5 km/h 69 % 0 mm 14 W/m2
18:24 18.1 °C 12.6 °C 1017.8 hPa ESE 9.7 km/h 16.1 km/h 70 % 0 mm 11 W/m2
18:29 18.1 °C 12.6 °C 1017.8 hPa ESE 9.7 km/h 16.1 km/h 70 % 0 mm 9 W/m2
18:34 18 °C 12.4 °C 1018.2 hPa ESE 8 km/h 17.7 km/h 70 % 0 mm 7 W/m2
18:39 17.9 °C 12.6 °C 1018.2 hPa ESE 8 km/h 17.7 km/h 71 % 0 mm 5 W/m2
18:44 17.9 °C 12.6 °C 1018.2 hPa ESE 6.4 km/h 12.9 km/h 71 % 0 mm 0 W/m2
18:49 17.9 °C 12.6 °C 1018.2 hPa ESE 8 km/h 17.7 km/h 71 % 0 mm 0 W/m2
18:54 17.8 °C 12.4 °C 1018.2 hPa ESE 9.7 km/h 17.7 km/h 71 % 0 mm 0 W/m2
18:59 17.8 °C 12.4 °C 1018.2 hPa ESE 9.7 km/h 17.7 km/h 71 % 0 mm 0 W/m2
19:04 17.7 °C 12.6 °C 1018.2 hPa ESE 9.7 km/h 17.7 km/h 72 % 0 mm 0 W/m2
19:09 17.7 °C 12.6 °C 1018.2 hPa ESE 8 km/h 12.9 km/h 72 % 0 mm 0 W/m2
19:14 17.6 °C 12.5 °C 1018.2 hPa ESE 8 km/h 14.5 km/h 72 % 0 mm 0 W/m2
19:19 17.6 °C 12.7 °C 1018.2 hPa ESE 6.4 km/h 14.5 km/h 73 % 0 mm 0 W/m2
19:24 17.4 °C 12.7 °C 1018.2 hPa ESE 6.4 km/h 11.3 km/h 74 % 0 mm 0 W/m2
19:29 17.4 °C 12.7 °C 1018.2 hPa ESE 6.4 km/h 12.9 km/h 74 % 0 mm 0 W/m2
19:34 17.3 °C 12.8 °C 1018.2 hPa ESE 8 km/h 14.5 km/h 75 % 0 mm 0 W/m2
19:39 17.2 °C 12.9 °C 1018.2 hPa ESE 8 km/h 14.5 km/h 76 % 0 mm 0 W/m2
19:44 17.1 °C 12.8 °C 1018.2 hPa ESE 8 km/h 12.9 km/h 76 % 0 mm 0 W/m2
19:49 17.1 °C 12.8 °C 1018.5 hPa ESE 8 km/h 14.5 km/h 76 % 0 mm 0 W/m2
19:54 16.9 °C 12.8 °C 1018.5 hPa ESE 9.7 km/h 16.1 km/h 77 % 0 mm 0 W/m2
19:59 16.9 °C 12.8 °C 1018.5 hPa ESE 9.7 km/h 16.1 km/h 77 % 0 mm 0 W/m2
20:04 16.8 °C 12.7 °C 1018.5 hPa ESE 9.7 km/h 16.1 km/h 77 % 0 mm 0 W/m2
20:09 16.7 °C 12.7 °C 1018.2 hPa ESE 9.7 km/h 16.1 km/h 77 % 0 mm 0 W/m2
20:14 16.7 °C 12.7 °C 1018.5 hPa ESE 9.7 km/h 14.5 km/h 77 % 0 mm 0 W/m2
20:19 16.6 °C 12.3 °C 1018.5 hPa ESE 9.7 km/h 16.1 km/h 76 % 0 mm 0 W/m2
20:25 16.6 °C 12.3 °C 1018.5 hPa ESE 9.7 km/h 16.1 km/h 76 % 0 mm 0 W/m2
20:30 16.5 °C 12.1 °C 1018.5 hPa ESE 11.3 km/h 17.7 km/h 75 % 0 mm 0 W/m2
20:35 16.4 °C 11.8 °C 1018.5 hPa ESE 11.3 km/h 19.3 km/h 74 % 0 mm 0 W/m2
20:40 16.4 °C 11.6 °C 1018.5 hPa ESE 11.3 km/h 19.3 km/h 73 % 0 mm 0 W/m2
20:45 16.4 °C 11.6 °C 1018.5 hPa ESE 11.3 km/h 17.7 km/h 73 % 0 mm 0 W/m2
20:50 16.3 °C 11.4 °C 1018.8 hPa SE 11.3 km/h 17.7 km/h 73 % 0 mm 0 W/m2
20:55 16.3 °C 11.4 °C 1018.8 hPa SE 9.7 km/h 17.7 km/h 73 % 0 mm 0 W/m2
21:00 16.3 °C 11.4 °C 1018.8 hPa SE 9.7 km/h 16.1 km/h 73 % 0 mm 0 W/m2
21:05 16.2 °C 11.3 °C 1018.8 hPa SE 9.7 km/h 16.1 km/h 73 % 0 mm 0 W/m2
21:10 16.2 °C 11.3 °C 1018.8 hPa SE 8 km/h 16.1 km/h 73 % 0 mm 0 W/m2
21:15 16.2 °C 11.3 °C 1018.8 hPa ESE 6.4 km/h 12.9 km/h 73 % 0 mm 0 W/m2
21:20 16.1 °C 11.3 °C 1018.8 hPa ESE 6.4 km/h 12.9 km/h 73 % 0 mm 0 W/m2
21:25 16.1 °C 11.3 °C 1018.8 hPa ESE 8 km/h 12.9 km/h 73 % 0 mm 0 W/m2
21:30 16.1 °C 11.4 °C 1018.8 hPa ESE 6.4 km/h 12.9 km/h 74 % 0 mm 0 W/m2
21:35 16 °C 11.4 °C 1018.8 hPa ESE 6.4 km/h 14.5 km/h 74 % 0 mm 0 W/m2
21:40 16 °C 11.4 °C 1018.8 hPa ESE 8 km/h 14.5 km/h 74 % 0 mm 0 W/m2
21:45 15.9 °C 11.3 °C 1018.8 hPa ESE 8 km/h 12.9 km/h 74 % 0 mm 0 W/m2
21:50 15.9 °C 11.3 °C 1018.8 hPa ESE 8 km/h 12.9 km/h 74 % 0 mm 0 W/m2
21:55 15.9 °C 11.3 °C 1018.8 hPa ESE 6.4 km/h 12.9 km/h 74 % 0 mm 0 W/m2
22:00 15.8 °C 11.4 °C 1018.8 hPa ESE 4.8 km/h 9.7 km/h 75 % 0 mm 0 W/m2
22:05 15.8 °C 11.4 °C 1018.8 hPa ESE 4.8 km/h 12.9 km/h 75 % 0 mm 0 W/m2
22:10 15.8 °C 11.4 °C 1018.8 hPa ESE 6.4 km/h 12.9 km/h 75 % 0 mm 0 W/m2
22:15 15.8 °C 11.6 °C 1018.8 hPa SE 6.4 km/h 12.9 km/h 76 % 0 mm 0 W/m2
22:20 15.7 °C 11.5 °C 1018.8 hPa SE 6.4 km/h 12.9 km/h 76 % 0 mm 0 W/m2
22:25 15.7 °C 11.5 °C 1018.8 hPa ESE 6.4 km/h 14.5 km/h 76 % 0 mm 0 W/m2
22:30 15.7 °C 11.5 °C 1018.8 hPa ESE 8 km/h 14.5 km/h 76 % 0 mm 0 W/m2
22:33 15.7 °C 11.5 °C 1018.8 hPa ESE 8 km/h 14.5 km/h 76 % 0 mm 0 W/m2
22:38 15.6 °C 11.6 °C 1018.8 hPa ESE 8 km/h 14.5 km/h 77 % 0 mm 0 W/m2
22:48 15.5 °C 11.5 °C 1018.8 hPa SE 6.4 km/h 12.9 km/h 77 % 0 mm 0 W/m2
22:53 15.5 °C 11.7 °C 1018.8 hPa SE 9.7 km/h 17.7 km/h 78 % 0 mm 0 W/m2
22:58 15.4 °C 11.6 °C 1018.8 hPa SE 9.7 km/h 17.7 km/h 78 % 0 mm 0 W/m2
23:03 15.4 °C 11.8 °C 1018.8 hPa SE 9.7 km/h 16.1 km/h 79 % 0 mm 0 W/m2
23:08 15.3 °C 11.9 °C 1018.8 hPa SE 11.3 km/h 16.1 km/h 80 % 0 mm 0 W/m2
23:13 15.1 °C 12.1 °C 1018.8 hPa SE 9.7 km/h 16.1 km/h 82 % 0.25 mm 0 W/m2
23:18 14.9 °C 12.1 °C 1018.8 hPa ESE 8 km/h 12.9 km/h 83 % 0.25 mm 0 W/m2
23:23 14.8 °C 12.1 °C 1018.8 hPa ESE 6.4 km/h 11.3 km/h 84 % 0.25 mm 0 W/m2
23:28 14.7 °C 12.2 °C 1018.8 hPa ESE 4.8 km/h 11.3 km/h 85 % 0.25 mm 0 W/m2
23:33 14.5 °C 12 °C 1018.8 hPa ESE 6.4 km/h 11.3 km/h 85 % 0.51 mm 0 W/m2
23:38 14.4 °C 12.1 °C 1018.8 hPa ESE 6.4 km/h 14.5 km/h 86 % 0.51 mm 0 W/m2
23:43 14.3 °C 12 °C 1018.8 hPa ESE 6.4 km/h 14.5 km/h 86 % 0.51 mm 0 W/m2
23:49 14.2 °C 12.1 °C 1018.8 hPa ESE 6.4 km/h 12.9 km/h 87 % 0.51 mm 0 W/m2
23:54 14.1 °C 11.9 °C 1018.8 hPa ESE 6.4 km/h 12.9 km/h 87 % 0.51 mm 0 W/m2
23:59 14.1 °C 12.2 °C 1018.8 hPa ESE 4.8 km/h 11.3 km/h 88 % 0.51 mm 0 W/m2
Delerius-Weather
Compliments of Weather Underground - 2.25 mb

Data updates at regular intervals.